This demonstration page uses our WeatherBlox Daily Observations layout. Learn more.

Left ArrowRight Arrow

40.92945, -100.16068

Hourly Observations for July 17, 2020

Temp ( °F °C ) Dew Point ( °F °C ) Humidity (%) Winds ( mph kmh ) Pressure ( in mb ) Visibility ( mi km ) Precip ( " mm )
12:15 am 00:15 Clear 77 25.2 69 20.7 76 76 SE 9 15 29.9 1012 10 16.0934 0 0
12:35 am 00:35 Clear 77 25 69 20.7 77 77 SE 12 19 29.89 1012 10 16.0934 0 0
12:55 am 00:55 Clear 76 24.4 69 20.6 79 79 SSE 12 19 29.9 1013 10 16.0934 0 0
1:15 am 01:15 Clear 76 24.2 69 20.5 80 80 SE 8 13 29.91 1013 10 16.0934 0 0
1:35 am 01:35 Clear 75 23.7 69 20.5 82 82 SE 9 15 29.9 1013 10 16.0934 0 0
1:55 am 01:55 Clear 74 23.5 69 20.5 83 83 ESE 8 13 29.89 1012 10 16.0934 0 0
2:15 am 02:15 Clear 74 23.5 69 20.6 84 84 SE 7 11 29.88 1012 10 16.0934 0 0
2:35 am 02:35 Clear 73 22.9 69 20.6 87 87 ESE 5 7 29.89 1012 10 16.0934 0 0
2:55 am 02:55 Clear 73 22.5 69 20.5 89 89 SE 6 9 29.89 1012 10 16.0934 0 0
3:15 am 03:15 Clear 73 22.5 69 20.7 90 90 SE 6 9 29.9 1013 10 16.0934 0 0
3:35 am 03:35 Clear 73 22.5 69 20.8 90 90 SE 8 13 29.89 1012 10 16.0934 0 0
3:55 am 03:55 Clear 72 22.3 69 20.8 91 91 SE 8 13 29.89 1012 10 16.0934 0 0
4:15 am 04:15 Clear 72 22.1 70 21 94 94 SE 9 15 29.88 1012 10 16.0934 0 0
4:35 am 04:35 Clear 72 22.1 70 21 94 94 SSE 13 20 29.88 1012 10 16.0934 0 0
4:55 am 04:55 Clear 72 22.1 70 21 94 94 SSE 16 26 29.87 1012 10 16.0934 0 0
5:15 am 05:15 Clear 72 22 70 21 94 94 SSE 14 22 29.87 1011 10 16.0934 0 0
5:35 am 05:35 Clear 72 22.3 70 21.1 93 93 S 16 26 29.86 1011 10 16.0934 0 0
5:55 am 05:55 Clear 73 22.5 70 21.1 92 92 S 13 20 29.87 1012 10 16.0934 0 0
6:15 am 06:15 Clear 73 22.5 70 21.1 92 92 S 9 15 29.88 1012 10 16.0934 0 0
6:35 am 06:35 Sunny 72 22.2 70 21 93 93 S 9 15 29.88 1012 10 16.0934 0 0
6:55 am 06:55 Sunny 72 22.2 70 21 93 93 S 8 13 29.88 1012 10 16.0934 0 0
7:15 am 07:15 Sunny 73 22.5 70 21.1 92 92 ESE 3 6 29.88 1012 10 16.0934 0 0
7:35 am 07:35 Sunny 73 22.9 70 21.2 90 90 SE 6 9 29.88 1012 10 16.0934 0 0
7:55 am 07:55 Sunny 74 23.1 71 21.4 90 90 SSE 9 15 29.88 1012 10 16.0934 0 0
8:15 am 08:15 Sunny 75 24 71 21.5 86 86 S 10 17 29.87 1011 10 16.0934 0 0
8:35 am 08:35 Sunny 77 24.8 70 21.3 81 81 S 7 11 29.86 1011 10 16.0934 0 0
8:55 am 08:55 Sunny 78 25.7 70 21.3 77 77 S 8 13 29.85 1011 10 16.0934 0 0
9:15 am 09:15 Sunny 80 26.4 70 21.2 73 73 S 9 15 29.85 1011 10 16.0934 0 0
9:35 am 09:35 Sunny 80 26.8 70 20.9 70 70 SSW 8 13 29.84 1010 10 16.0934 0 0
9:55 am 09:55 Sunny 83 28.1 69 20.6 64 64 S 7 11 29.82 1010 10 16.0934 0 0
10:15 am 10:15 Sunny 85 29.3 68 20.1 58 58 SSW 7 11 29.81 1010 10 16.0934 0 0
10:35 am 10:35 Sunny 84 29.1 68 19.9 58 58 SSW 9 15 29.82 1010 10 16.0934 0 0
10:55 am 10:55 Sunny 85 29.7 68 20 56 56 SSW 14 22 29.81 1010 10 16.0934 0 0
11:15 am 11:15 Sunny 85 29.7 69 20.6 58 58 S 15 24 29.81 1010 10 16.0934 0 0
11:35 am 11:35 Sunny 86 30.1 67 19.6 53 53 SSW 16 26 29.82 1010 10 16.0934 0 0
11:55 am 11:55 Sunny 85 29.5 69 20.6 59 59 S 13 20 29.81 1010 10 16.0934 0 0
12:15 pm 12:15 Sunny 90 32 68 19.9 49 49 SSW 13 20 29.78 1009 10 16.0934 0 0
12:35 pm 12:35 Sunny 91 32.6 67 19.6 46 46 S 13 20 29.78 1008 10 16.0934 0 0
12:55 pm 12:55 Sunny 92 33.2 69 20.7 48 48 S 15 24 29.77 1008 10 16.0934 0 0
1:15 pm 13:15 Sunny 92 33.6 66 18.8 42 42 SSW 16 26 29.77 1008 10 16.0934 0 0
1:35 pm 13:35 Sunny 93 33.7 67 19.3 43 43 S 16 26 29.76 1008 10 16.0934 0 0
1:55 pm 13:55 Sunny 95 34.9 67 19.4 40 40 SSW 20 31 29.74 1007 10 16.0934 0 0
2:15 pm 14:15 Sunny 95 34.8 66 18.7 39 39 SSW 20 31 29.73 1007 10 16.0934 0 0
2:35 pm 14:35 Partly Cloudy 95 35.2 65 18.1 36 36 SSW 17 28 29.73 1007 10 16.0934 0 0
2:55 pm 14:55 Sunny 95 34.9 65 18.3 37 37 S 15 24 29.72 1006 10 16.0934 0 0
3:15 pm 15:15 Sunny 96 35.4 65 18.3 36 36 S 16 26 29.72 1006 10 16.0934 0 0
3:35 pm 15:35 Sunny 96 35.4 65 18.4 37 37 S 17 28 29.71 1006 10 16.0934 0 0
3:55 pm 15:55 Sunny 95 34.8 68 19.9 42 42 SSE 17 28 29.71 1006 10 16.0934 0 0
4:15 pm 16:15 Sunny 95 35.2 63 17.3 34 34 S 16 26 29.7 1006 10 16.0934 0 0
4:35 pm 16:35 Sunny 95 35.2 67 19.2 39 39 S 14 22 29.7 1006 10 16.0934 0 0
4:55 pm 16:55 Sunny 95 35 67 19.7 41 41 SSE 15 24 29.69 1005 10 16.0934 0 0
5:15 pm 17:15 Sunny 94 34.7 67 19.2 40 40 SSE 14 22 29.69 1006 10 16.0934 0 0
5:35 pm 17:35 Sunny 94 34.7 66 19.1 40 40 SSE 16 26 29.69 1006 10 16.0934 0 0
5:55 pm 17:55 Sunny 94 34.5 67 19.5 41 41 SSE 17 28 29.69 1006 10 16.0934 0 0
6:15 pm 18:15 Sunny 93 34.1 69 20.7 45 45 SSE 16 26 29.7 1006 10 16.0934 0 0
6:35 pm 18:35 Sunny 92 33.2 70 21.1 49 49 SSE 10 17 29.69 1006 10 16.0934 0 0
6:55 pm 18:55 Sunny 91 32.8 69 20.6 49 49 SSE 12 19 29.7 1006 10 16.0934 0 0
7:15 pm 19:15 Sunny 91 32.5 71 21.5 52 52 SSE 12 19 29.7 1006 10 16.0934 0 0
7:35 pm 19:35 Sunny 89 31.8 72 22 56 56 ESE 12 19 29.71 1006 10 16.0934 0 0
7:55 pm 19:55 Sunny 89 31.5 72 22.3 58 58 SE 12 19 29.7 1006 10 16.0934 0 0
8:15 pm 20:15 Sunny 87 30.8 73 22.7 62 62 SE 12 19 29.7 1006 10 16.0934 0 0
8:35 pm 20:35 Sunny 86 30.1 74 23.1 66 66 SE 12 19 29.71 1006 10 16.0934 0 0
8:55 pm 20:55 Sunny 85 29.4 74 23.5 71 71 SE 13 20 29.71 1006 10 16.0934 0 0
9:15 pm 21:15 Clear 83 28.5 75 23.7 75 75 SE 10 17 29.72 1006 10 16.0934 0 0
9:35 pm 21:35 Clear 82 28 75 23.7 78 78 SE 12 19 29.74 1007 10 16.0934 0 0
9:55 pm 21:55 Clear 82 27.5 75 24 81 81 SE 12 19 29.74 1007 10 16.0934 0 0
10:15 pm 22:15 Clear 81 27.2 75 24.1 83 83 SE 9 15 29.74 1007 10 16.0934 0 0
10:35 pm 22:35 Clear 80 26.9 75 24 84 84 SSE 9 15 29.74 1007 10 16.0934 0 0
10:55 pm 22:55 Clear 79 26.3 74 23.6 85 85 SSE 9 15 29.74 1007 10 16.0934 0 0
11:15 pm 23:15 Clear 79 26 74 23.3 85 85 SSE 9 15 29.74 1007 10 16.0934 0 0
11:35 pm 23:35 Clear 78 25.7 73 22.9 85 85 SSE 10 17 29.72 1007 10 16.0934 0 0
11:55 pm 23:55 Clear 78 25.6 73 22.5 83 83 SSE 10 17 29.73 1007 10 16.0934 0 0

Powered by AerisWeather